Simultaneous Nadir Overpasses (SNOs) Predictions

Prediction of SNOs between GOES-15 and METOP-A Satellite Orbit:

Table of predicted SNOs for the next 14.0 days since TLE Epoch: 8/29/2014
Index Date Time (GOES-15) GOES-15 Lat,Lon METOP-A Lat,Lon Distance(km) Time Diff (sec)
1 08/30/2014 18:29:29 -0.25,-134.89 -0.20,-135.19 33.57 80
2 09/02/2014 06:27:50 0.26,-134.66 0.24,-134.77 13.05 80
3 09/04/2014 18:28:43 -0.27,-134.57 -0.29,-134.33 26.52 80
4 09/07/2014 06:27:04 0.28,-134.32 0.35,-133.92 44.73 80
5 09/08/2014 18:43:17 -0.30,-134.29 0.63,-138.49 479.18 80
6 09/09/2014 18:25:17 -0.29,-134.21 -0.46,-133.49 82.63 80
7 09/11/2014 06:41:37 0.31,-134.03 -0.62,-138.07 461.57 80
8 09/12/2014 06:23:37 0.30,-133.95 0.47,-133.07 99.94 80
